Yuma MCAS, AZ

11:17 AM MST on February 24, 2018 (GMT -0700)
Yuma Marine Corps Air Station

Weather History for KNYL - April, 2014

Change the Weather History Date:

Wednesday, April 30, 2014

  Actual Average Record
Temperature  
Mean Temperature 79 °F 77 °F  
Max Temperature 90 °F 90 °F 103 °F (1943)
Min Temperature 68 °F 64 °F 45 °F (1942)
Degree Days  
Heating Degree Days 0 0  
Month to date heating degree days 5 12  
Since 1 July heating degree days 370 686  
Cooling Degree Days 14 12  
Month to date cooling degree days 313 253  
Year to date cooling degree days 612 406  
Growing Degree Days 28 (Base 50)    
Moisture  
Dew Point 12 °F    
Average Humidity 9    
Maximum Humidity 12    
Minimum Humidity 5    
Precipitation  
Precipitation 0.00 in 0.00 in 0.10 in (2009)
Month to date precipitation 0.00 0.15  
Year to date precipitation 0.07 1.24  
Sea Level Pressure  
Sea Level Pressure 29.97 in    
Wind  
Wind Speed 15 mph (North)    
Max Wind Speed 26 mph    
Max Gust Speed 36 mph    
Visibility 10 miles    
Events      
T = Trace of Precipitation, MM = Missing Value Source: NWS Daily Summary

Daily Weather History Graph

Daily Weather History Graph

Search for Another Location

Airport or City:

Trip Planner

Search our weather history database for the weather conditions in past years. The results will help you decide how hot, cold, wet, or windy it might be!

Date:

Astronomy

Apr. 30, 2014 Rise Set
Actual Time 5:52 AM MST 7:19 PM MST
Civil Twilight 5:26 AM MST 7:45 PM MST
Nautical Twilight 4:55 AM MST 8:16 PM MST
Astronomical Twilight 4:22 AM MST 8:49 PM MST
Moon 6:58 AM MST (4/30) 8:59 PM MST (4/30)
Length of Visible Light 14h 19m
Length of Day
13h 27m
Waxing Crescent, 3% of the Moon is Illuminated
Apr 30
Waxing Crescent
May 6
First Quarter
May 14
Full
May 21
Last Quarter
May 28
New

Hourly Weather History & Observations

Time (MST) Temp. Dew Point Humidity Pressure Visibility Wind Dir Wind Speed Gust Speed Precip Events Conditions
12:57 AM 75.0 °F 8.1 °F 8% 29.99 in 10.0 mi North 10.4 mph - N/A   Clear
1:57 AM 73.0 °F 9.0 °F 8% 29.99 in 10.0 mi NNE 8.1 mph - N/A   Clear
2:57 AM 69.1 °F 15.1 °F 13% 30.00 in 10.0 mi East 11.5 mph - N/A   Clear
3:57 AM 70.0 °F 12.0 °F 11% 30.01 in 10.0 mi NNE 6.9 mph - N/A   Clear
4:57 AM 69.1 °F 12.0 °F 11% 30.02 in 10.0 mi NNE 9.2 mph - N/A   Clear
5:57 AM 68.0 °F 12.9 °F 12% 30.05 in 10.0 mi North 10.4 mph - N/A   Partly Cloudy
6:57 AM 70.0 °F 12.0 °F 11% 30.07 in 10.0 mi North 11.5 mph 21.9 mph N/A   Partly Cloudy
7:57 AM 73.9 °F 12.9 °F 10% 30.07 in 10.0 mi North 18.4 mph - N/A   Partly Cloudy
8:57 AM 75.9 °F 10.9 °F 8% 30.07 in 10.0 mi North 21.9 mph 28.8 mph N/A   Partly Cloudy
9:57 AM 79.0 °F 10.9 °F 8% 30.07 in 10.0 mi North 17.3 mph 26.5 mph N/A   Partly Cloudy
10:57 AM 82.0 °F 10.9 °F 7% 30.05 in 10.0 mi North 16.1 mph 26.5 mph N/A   Partly Cloudy
11:57 AM 84.0 °F 10.0 °F 6% 30.01 in 10.0 mi North 25.3 mph 31.1 mph N/A   Partly Cloudy
12:57 PM 86.0 °F 10.9 °F 6% 29.98 in 10.0 mi North 21.9 mph 27.6 mph N/A   Partly Cloudy
1:57 PM 87.1 °F 10.9 °F 6% 29.96 in 10.0 mi North 15.0 mph 31.1 mph N/A   Scattered Clouds
2:57 PM 88.0 °F 10.9 °F 6% 29.93 in 10.0 mi NNW 18.4 mph 29.9 mph N/A   Mostly Cloudy
3:57 PM 89.1 °F 12.9 °F 6% 29.90 in 10.0 mi North 16.1 mph 26.5 mph N/A   Mostly Cloudy
4:57 PM 89.1 °F 12.9 °F 6% 29.88 in 10.0 mi North 19.6 mph 27.6 mph N/A   Partly Cloudy
5:57 PM 88.0 °F 12.9 °F 6% 29.87 in 10.0 mi North 18.4 mph 29.9 mph N/A   Clear
6:57 PM 84.9 °F 12.0 °F 7% 29.87 in 10.0 mi North 17.3 mph 24.2 mph N/A   Clear
7:57 PM 82.9 °F 10.9 °F 7% 29.88 in 10.0 mi North 12.7 mph - N/A   Clear
8:57 PM 81.0 °F 12.9 °F 8% 29.90 in 10.0 mi North 12.7 mph - N/A   Clear
9:57 PM 79.0 °F 12.9 °F 8% 29.92 in 10.0 mi NNW 10.4 mph - N/A   Clear
10:57 PM 79.0 °F 10.9 °F 8% 29.92 in 10.0 mi North 11.5 mph - N/A   Clear
11:57 PM 78.1 °F 10.9 °F 8% 29.93 in 10.0 mi North 9.2 mph - N/A   Clear